Showing default

SJ-11-08, 40286

Orbit data source: Space-Track

SJ-11-08, 40286 is a payload satellite owned by CNSA (CN) in SSO that was launched on Mon, 27 Oct 2014 UTC via a CHANG ZHENG 2C launch vehicle from the Jiuquan Satellite Launch Center, China (JSC). Payload-class satellites include a variety of spacecraft equipped with specific instruments for various scientific and technological missions. These include communications satellites like Starlink; space stations such as the ISS; scientific satellites like the Hubble; Earth observation satellites from companies like Planet Labs, Umbra, and HawkEye 360; GPS; miniature CubeSats for education and research; and military/defense satellites.

Loading next visibility...
Identifier
40286, 2014-066A
Orbit
SSO
Country
Flag of CNCN / PRC
Related business
Manufacturer
DFH
Mission
Operational Defense Early Warn
Bus & Motor
CAST-2000?, Unknown motor
Mass
~300 kg wet, ~300 kg dry
Launch date (UTC)
2014-10-27 (11 years ago)
Launch vehicle
CHANG ZHENG 2C
Launch site
Jiuquan Satellite Launch Center, China (JSC)
Object type
Payload
Rocket body
Debris
Shape & HBR
Box + 2 Pan, 1.5 m
Radar Cross Section
2.045 m², Large (>1 m²)

Expand to show TLE details & history
Last TLE update: 1 day ago

TLE from 1 day ago
0 SJ-11-08
1 40286U 14066A   25305.62738505  .00001198  00000-0  22914-3 0  9998
2 40286  98.3210  82.1040 0011425 221.5736 138.4599 14.65720230587873
Epoch: 2025-11-01T15:03Z
TLE epoch observation values (Epoch: 2025-11-01T15:03:26.068Z)
Latitude
-0.00001°
Longitude
175.09064°
Altitude
683.79 km
Speed
7.511 km/s
True Right ascension
05h 28m 24s
True Declination
0° 00' 00"
Sunlit
Object was in full shadow at epoch
Visualization orbit readout
Latitude
Unknown
Longitude
Unknown
Altitude
Unknown
Speed
Unknown
Apparent Right ascension
Unknown
Apparent Declination
Unknown
Sunlit
N/A
Visualization observer readout
Local Sidereal Time
11:29:25
Azimuth
Unknown
Elevation
Unknown
Doppler factor
Unknown
Orbital elements
Apogee altitude
679.898 km
Perigee altitude
663.789 km
Semi-major axis
7,049.98 km
Eccentricity
0.00114
Inclination
98.321°
RAAN
82.104°
Arg. of periapsis
221.5736°
True anomaly
138.54663°
Mean anomaly
138.4599°
Eccentric anomaly
138.50327°
Mean motion
3.66658 °/min
Orbital period
98.18 mins
BSTAR
0.00022914
Loading maneuver chart data...
Computing Atmospheric mass density...
Loading historical data...
Loading historical data...
Loading historical data...
Loading historical data...
Loading historical data...
Loading historical data...
Loading historical data...
Other satellites on launch #66 in the year 2014 (2014-10-27 UTC)

Documentation

Showing up to 5 results
|